Weather in Yegorovka

Russia / Novosibirsk Oblast     55°37′15″N   84°13′01″E
temp.,
°C
wind,
m/s
gust,
m/s
humid.,
%
clouds,
%
prec.,
mm/h
press.,
hPa
HPBL,
m
2 march, tue
tue201:00−14ne479598 0.7 1011206
04:00−15ne359697 0.1 1011181
07:00−17ne239798 0.3 101378
10:00−17nne2295100 0.2 1014132
13:00−14nw118998 0.3 1015299
16:00−12w1287100 0.1 1015386
19:00−14wnw1196100 0.2 101620
22:00−15n119691 0.1 101620
3 march, wed
wed301:00−19sw1110081 0.1 101720
04:00−19sw1110069 0.0 101720
07:00−19sw2210082 0.1 101820
10:00−16sw229691 0.1 1019113
13:00−13sw349089 0.1 1019364
16:00−10sw3691100 0.1 1019484
19:00−13ssw3495100 0.1 102150
22:00−15ssw499667 0.0 1022186
4 march, thu
thu401:00−15ssw5129464 0.0 1022266
04:00−15ssw7159382 0.0 1022381
07:00−13s7159092 0.0 1022466
10:00−11ssw91587100 0.3 1020605
13:00−7ssw91588100 0.3 1020683
16:00−6ssw91593100 0.3 1018798
19:00−5ssw81494100 0.9 1018769
22:00−5ssw81594100 0.8 1017793
5 march, fri
fri501:00−5ssw81685100 1.2 1016634
04:00−7ssw81687100 0.0 1015539
07:00−8ssw71585100 0.0 1014412
10:00−6ssw61384100 0.0 1012518
13:00−5ssw81394100 0.6 1011734
16:00−3sw81295100 1.0 1011833
19:00−5wsw61392100 1.4 1014661
22:00−7sw8158990 0.0 1018522
6 march, sat
sat601:00−8sw9188594 0.0 1019709
04:00−7sw111992100 0.5 1017940
07:00−8sw111890100 0.8 1017870
10:00−8sw111890100 0.2 1017861
13:00−6sw101690100 0.7 1017886
16:00−6sw101688100 0.1 1017852
19:00−6sw81690100 0.2 1017795
22:00−7sw81590100 0.1 1018699